Location: Buchberg
(46.9333°N, 15.8500°E)
Time: 03:56:58
(UTC+00:00)

SeaSat 1 - Pass Details

Date: 14 July 2020
Orbit: 744 x 748 km, 108.0° (Epoch: 11 August)

Event Time Altitude Azimuth Distance (km) Brightness Sun altitude
Rises 02:13:11 0° 21° (NNE) 3,202 7.1 -9.1°
Reaches altitude 10° 02:15:41 10° 11° (N) 2,274 5.9 -8.8°
Maximum altitude 02:19:55 30° 311° (NW) 1,335 3.7 -8.3°
Drops below altitude 10° 02:24:09 10° 252° (WSW) 2,265 4.4 -7.8°
Enters shadow 02:24:46 - 249° (WSW) 2,487 4.6 -7.7°
